TIME,DELAY(SENSOR),PRES,T(CTD),SAL,OXYGEN,RAWTEMP,T(OPTODE),TCPHASE,FLUOR,BETA(BETA700),BETA(BETA412),BETA(BETA440),CDOM,C(CSC),ED(ED412.40),ED(ED444.00),ED(ED489.70),ED(ED554.30),LU(LU411.80),LU(LU443.40),LU(LU489.60),LU(LU554.10),COMP,TILTX,TILTX(TILTY),CHECK
1382304697,5809,497.9500122070312500,6.7912998199462890,34.1319007873535160,77.5755233764648400,594.2343750000000000,6.7703590393066410,49.1129417419433600,51,103,87,78,76,15245,2147746112,2147423936,2148009124,2147869970,2147628544,2147075190,2148254180,2147202532,468,3,13,21584
1382304843,5811,486.4700012207031000,6.9380002021789550,34.1176986694335940,86.7765197753906200,589.6367797851562000,6.9185261726379395,47.9744682312011700,51,104,87,79,75,15246,2147744658,2147424064,2148007552,2147870683,2147627236,2147079680,2148253760,2147201270,2882,4,13,5131
1382304997,5809,475.7000122070312500,7.1092000007629395,34.1054000854492200,96.0261688232421900,584.4202270507812000,7.0864090919494630,46.8738594055175800,52,102,87,79,76,15245,2147742582,2147424557,2148009362,2147873078,2147626962,2147080256,2148248877,2147199012,1469,3,13,29869
1382305193,5806,462.8299865722656000,7.3562998771667480,34.0982017517089840,108.9018020629882800,575.6121215820312000,7.3693099021911620,45.3935508728027340,51,103,86,78,75,15246,2147742116,2147424137,2148008064,2147874249,2147625389,2147076900,2148244644,2147199652,3265,3,13,10395
1382305340,5806,451.1199951171875000,7.6486001014709470,34.1059989929199200,114.5355987548828100,567.3436279296875000,7.6342530250549320,44.6989707946777340,51,103,89,80,75,15245,2147745901,2147422756,2148007844,2147874249,2147624594,2147081289,2148245120,2147206884,1686,3,13,64729
1382305461,5804,440.5599975585937500,7.8864002227783200,34.1021995544433600,123.3793029785156200,559.7310791015625000,7.8776450157165530,43.7267990112304700,51,104,83,80,74,15244,2147743542,2147425106,2148008905,2147872585,2147620864,2147079186,2148244242,2147199570,788,3,12,6208
1382305571,5805,429.1499938964844000,8.1730003356933600,34.0984992980957000,131.9642028808593800,550.9641113281250000,8.1573486328125000,42.7937889099121100,50,104,86,80,74,15246,2147743570,2147423469,2148009344,2147872612,2147621101,2147083382,2148240694,2147199680,2955,4,13,28156
1382305670,5809,417.9899902343750000,8.4806995391845700,34.0984001159668000,141.8367004394531200,541.0798950195312000,8.4719276428222660,41.7634391784668000,50,103,89,80,72,15243,2147742445,2147424667,2148004955,2147872960,2147618368,2147087424,2148236754,2147203044,2921,3,13,973
1382305769,5810,407.0299987792969000,8.8007001876831050,34.1002998352050800,152.7169036865234400,530.9763793945312000,8.7926788330078120,40.6911888122558600,50,106,85,79,73,15245,2147741174,2147422500,2148006884,2147872758,2147617490,2147084937,2148240201,2147205696,2590,3,13,57938
1382305879,5812,396.1199951171875000,8.9778995513916020,34.1046981811523440,160.0529022216797000,525.5742187500000000,8.9638538360595700,40.0220413208007800,50,103,83,79,72,15243,2147736484,2147425024,2148005869,2147875309,2147615762,2147091584,2148232932,2147204342,1615,3,13,50690
1382306000,5805,384.5499877929687500,9.2377996444702150,34.1068992614746100,166.8860931396484400,517.5524291992188000,9.2176246643066400,39.3679695129394500,50,103,86,79,70,15244,2147738660,2147423222,2148005174,2147872978,2147612077,2147096137,2148230116,2147201142,1033,3,13,28192
1382306123,5809,373.3800048828125000,9.5678997039794920,34.1147994995117200,173.7899932861328000,506.7033081054687500,9.5600824356079100,38.6797904968261700,49,104,87,79,71,15244,2147736274,2147426331,2148005549,2147872356,2147614701,2147095369,2148230592,2147202788,3507,3,13,48138
1382306244,5803,362.7799987792969000,9.9211997985839840,34.1258010864257800,175.8121032714843800,495.5643920898437500,9.9108133316040040,38.3461418151855500,49,106,89,81,72,15242,2147736658,2147426313,2148006317,2147873792,2147611693,2147090806,2148227126,2147200877,352,4,13,18040
1382306379,5809,351.5499877929687500,10.2934999465942380,34.1301002502441400,176.6417999267578000,483.9645080566406000,10.2751598358154300,38.0906791687011700,49,106,87,79,70,15242,2147732790,2147426669,2148005961,2147871725,2147611401,2147099300,2148225673,2147201526,2910,3,13,41200
1382306522,5807,340.7900085449219000,10.4651002883911130,34.1357994079589840,181.8881988525390600,478.3048095703125000,10.4525995254516600,37.6329689025878900,49,104,86,80,71,15240,2147731510,2147424585,2148006966,2147871213,2147609353,2147099108,2148229101,2147204470,2119,3,13,6431
1382306698,5808,328.7799987792969000,10.9286003112792970,34.1433982849121100,183.8860015869140600,463.3348999023437500,10.9209699630737300,37.2480888366699200,49,104,85,79,69,15242,2147732699,2147425581,2148009380,2147873133,2147605458,2147111296,2148225517,2147203803,1827,3,13,6680
1382306845,5806,317.5199890136719000,11.3760995864868160,34.1577987670898440,190.2592010498047000,447.9202880859375000,11.4018402099609380,36.5733795166015600,49,104,86,79,69,15238,2147730267,2147428169,2148010240,2147871140,2147604388,2147108781,2148229952,2147205321,1065,3,14,2220
1382306999,5810,305.2999877929687500,12.1294002532958980,34.1898002624511700,197.9857940673828000,424.1416931152344000,12.1410503387451170,35.6998596191406250,48,106,87,80,68,15240,2147726482,2147426477,2148015469,2147872886,2147595200,2147116608,2148228644,2147208329,3142,3,13,64017
1382307118,5808,293.6400146484375000,12.6702003479003900,34.2244987487793000,202.5077056884765600,407.2182922363281000,12.6654100418090820,35.1549911499023440,49,103,87,80,68,15240,2147725714,2147429842,2148023570,2147873417,2147596260,2147116690,2148225243,2147209865,1462,3,13,10513
1382307217,5807,282.9800109863281000,13.1674003601074220,34.2626991271972660,207.5688018798828000,390.7217102050781000,13.1752796173095700,34.5975990295410160,49,103,89,78,67,15239,2147726674,2147434486,2148035099,2147873846,2147595437,2147123035,2148224859,2147209792,593,3,13,294
1382307329,5811,271.3399963378906000,13.9448995590209960,34.3268013000488300,211.5355072021484400,365.4512023925781000,13.9541797637939450,33.9821281433105500,48,103,84,79,66,15238,2147724434,2147431753,2148035218,2147875218,2147589714,2147128365,2148221997,2147209051,1600,3,13,28044
1382307450,5806,260.0100097656250000,14.4667997360229500,34.3785018920898440,213.9674987792968800,348.3062133789062500,14.4813299179077150,33.5873603820800800,48,104,86,78,67,15235,2147721472,2147443318,2148067547,2147873718,2147588096,2147141083,2148235163,2147209782,18,3,13,55945
1382307585,5810,249.6000061035156200,15.6492996215820310,34.5052986145019500,213.9868011474609400,309.3352050781250000,15.6764297485351560,33.0113105773925800,48,106,87,80,66,15232,2147718555,2147449078,2148080073,2147871945,2147584603,2147146806,2148237193,2147209316,2812,3,14,20962
1382307739,5807,238.8999938964843800,16.5179004669189450,34.6133003234863300,217.1407012939453000,282.2485046386719000,16.5051498413085940,32.4493789672851560,50,104,87,78,64,15229,2147718994,2147464640,2148116105,2147872804,2147575917,2147167204,2148249188,2147213302,2876,3,14,34880
1382307915,5809,224.6900024414062500,17.5694999694824220,34.7466011047363300,217.9163055419922000,247.2113952636718800,17.5757198333740230,31.9134197235107420,50,104,88,80,62,15227,2147720950,2147496932,2148202953,2147871241,2147575268,2147195318,2148283282,2147216667,2793,2,14,21289
1382308034,5808,212.7700042724609400,18.3017005920410160,34.8438987731933600,217.9635009765625000,223.5153961181640600,18.2993602752685550,31.5827102661132800,50,105,86,80,64,15223,2147720530,2147499730,2148192987,2147870171,2147573120,2147201179,2148274770,2147215131,1125,2,14,17054
1382308144,5810,201.2100067138672000,18.4941997528076170,34.8740005493164060,218.1694030761718800,216.6566925048828000,18.5088195800781250,31.4775009155273440,51,103,86,79,62,15221,2147730925,2147539757,2148268388,2147870262,2147574436,2147226852,2148304054,2147221238,3336,2,15,65327
1382308223,5808,193.5599975585937500,18.9627990722656250,34.9345016479492200,218.6022949218750000,202.4828948974609400,18.9417304992675780,31.2611103057861330,54,108,87,80,63,15217,2147731968,2147553234,2148294683,2147871689,2147573741,2147242331,2148322870,2147221778,2593,2,14,60651
1382308278,5809,189.1199951171875000,19.1058006286621100,34.9594993591308600,219.2133026123047000,197.3836975097656200,19.0975093841552730,31.1598796844482420,55,106,85,81,64,15216,2147760100,2147699044,2148646738,2147874002,2147586614,2147329234,2148491712,2147232347,1749,2,15,16839
1382308333,5809,184.9400024414062500,19.4022998809814450,34.9962997436523440,218.9994964599609400,187.8583068847656200,19.3885593414306640,31.0422992706298830,57,110,87,80,64,15210,2147778340,2147776310,2148815424,2147877092,2147596169,2147374948,2148574656,2147243574,1346,2,15,41069
1382308388,5809,180.8500061035156200,19.5195999145507800,35.0173988342285160,218.8020019531250000,183.1412963867187500,19.5327301025390620,30.9886608123779300,58,109,87,81,63,15208,2147781942,2147764818,2148761993,2147875190,2147593188,2147365019,2148538560,2147240137,1172,2,14,41067
1382308443,5810,177.0099945068359400,19.8264999389648440,35.0606002807617200,218.4862060546875000,173.8047027587890600,19.8181591033935550,30.8798999786376950,62,110,86,80,62,15201,2147741339,2147565156,2148287798,2147871744,2147574070,2147252278,2148313563,2147223405,354,2,14,44680
1382308498,5806,173.2100067138672000,19.9435997009277340,35.0822982788085940,218.3088073730468800,168.7937927246093800,19.9713993072509770,30.8221607208251950,63,110,86,80,63,15200,2147738395,2147557504,2148256685,2147874386,2147574482,2147252553,2148291328,2147227428,458,2,14,58486
1382308583,5812,167.5500030517578000,20.2605991363525400,35.1286010742187500,218.6582031250000000,159.4662933349609400,20.2567501068115230,30.6793708801269530,69,125,84,80,62,15196,2147744237,2147566729,2148265810,2147871771,2147575442,2147254628,2148292626,2147223862,76,2,14,45068
1382308638,5812,164.1300048828125000,20.4456005096435550,35.1515998840332000,219.2854003906250000,153.1044006347656200,20.4514694213867200,30.5625495910644530,70,111,86,81,61,15200,2147754432,2147591195,2148305947,2147874614,2147574948,2147270290,2148311597,2147226496,3043,1,15,2471
1382308704,5808,160.0299987792968800,20.6133003234863280,35.1691017150878900,220.2245025634765600,148.1389007568359400,20.6035003662109380,30.4484691619873050,71,112,86,81,61,15193,2147771337,2147636498,2148387099,2147875446,2147586285,2147303670,2148351936,2147228571,1886,2,15,63642
1382308770,5811,155.7899932861328000,20.7203006744384770,35.1645011901855500,219.7398986816406200,144.6647949218750000,20.7098999023437500,30.4275703430175780,78,117,88,81,61,15188,2147802916,2147709924,2148518217,2147875840,2147598902,2147345883,2148407232,2147230372,917,2,15,39918
1382308825,5803,152.2200012207031200,20.6994991302490230,35.1445999145507800,219.1336975097656200,145.2794952392578000,20.6910800933837900,30.4666309356689450,81,119,88,81,61,15183,2147838765,2147787145,2148650066,2147878528,2147611565,2147386971,2148471926,2147239085,259,2,15,45874
1382308910,5805,147.2299957275390600,20.8647003173828120,35.1483001708984400,216.1318969726562500,139.3768005371093800,20.8719100952148440,30.5443096160888670,87,119,86,81,62,15173,2147901906,2147918820,2148868169,2147877056,2147635053,2147455524,2148566253,2147239552,3091,1,15,55614
1382308998,5810,144.1399993896484400,21.0345001220703120,35.1769981384277340,216.9951934814453000,134.8128967285156200,21.0117797851562500,30.4390602111816400,90,116,86,81,61,15174,2147952548,2148026185,2149037696,2147878308,2147657097,2147515227,2148645202,2147248896,2372,2,15,45837
1382309211,5809,140.2799987792968800,21.1401004791259770,35.1929016113281250,219.2127075195312500,130.7922058105468800,21.1350498199462900,30.2717304229736330,91,121,87,82,62,15169,2148343424,2148884169,2150552512,2147887387,2147805302,2147952832,2149282907,2147299602,2661,1,15,50050
1382309354,5810,136.0200042724609400,21.1942996978759770,35.1297988891601560,217.9450988769531200,128.5673065185547000,21.2032699584960940,30.3077697753906250,101,121,87,83,61,15163,2148469888,2149024393,2150688923,2147894994,2147853604,2148009508,2149328886,2147304310,184,2,15,12045
1382309517,5806,130.4700012207031200,21.5841007232666000,35.1782989501953100,213.9738006591797000,116.7406005859375000,21.5661697387695300,30.3592605590820300,107,121,88,82,60,15155,2148590802,2149093494,2150642166,2147894500,2147888109,2148003081,2149255698,2147301028,3131,1,15,33394
1382309594,5806,126.6500015258789000,21.9030990600585940,35.2350997924804700,217.7279052734375000,106.6373977661132800,21.8765106201171880,30.0320796966552730,111,124,89,83,60,15143,2149240539,2150298724,2152628772,2147918281,2148138112,2148595894,2150108278,2147370651,2240,1,15,45491
1382309682,5804,122.4899978637695300,22.2513008117675780,35.2717018127441400,227.3433990478515600,96.3963470458984400,22.1914005279541000,29.4195594787597660,124,122,90,81,60,15134,2149860598,2151323163,2154130258,2147935835,2148367040,2149030217,2150661540,2147417033,1950,2,15,41946
1382309795,5809,118.9300003051757800,22.3901004791259770,35.2864990234375000,232.1582031250000000,91.1505813598632800,22.3528404235839840,29.1217308044433600,133,123,89,83,61,15126,2150513773,2152328329,2155552667,2147961216,2148587035,2149419657,2151152521,2147459904,2607,2,15,3123
1382309949,5807,115.3899993896484400,22.4398994445800780,35.2899017333984400,236.5167999267578000,88.4155273437500000,22.4370498657226560,28.8829002380371100,137,121,90,81,59,15119,2152344548,2155199680,2159627245,2148017636,2149253394,2150626779,2152691858,2147596580,3144,2,15,33584
1382310122,5806,110.1999969482421900,22.6858997344970700,35.2995986938476560,237.5160980224609400,81.0136871337890600,22.6650791168212900,28.7433891296386720,144,124,89,82,59,15106,2154369161,2158057526,2163072566,2148085421,2149966244,2151658331,2153823396,2147706404,223,2,15,16096
1382310199,5810,106.3899993896484400,22.9141006469726560,35.2985000610351560,237.5520019531250000,73.4072875976562500,22.8996295928955080,28.6456394195556640,153,124,90,83,60,15095,2156501330,2161135817,2166713526,2148159661,2150737901,2152824630,2155144420,2147842980,2368,1,16,24703
1382310287,5805,102.5199966430664000,23.0648002624511720,35.3101005554199200,236.6304016113281200,68.2478713989257800,23.0588607788085940,28.6230907440185550,152,122,90,84,61,15095,2155998756,2159606326,2163486537,2148121307,2150656502,2152356845,2154265133,2147775405,1856,1,16,21810
1382310386,5810,99.3000030517578100,23.2914009094238280,35.3250999450683600,237.3874053955078000,61.5259094238281250,23.2664794921875000,28.5039691925048830,125,119,87,82,58,15113,2159135451,2163929115,2168568475,2148245604,2151819300,2154084452,2156068818,2147956242,1469,1,16,7624
1382310471,5810,97.0400009155273400,23.4188995361328120,35.2955017089843750,237.8827972412109400,56.9348411560058600,23.4083900451660160,28.4238204956054700,105,119,88,83,59,15123,2158868909,2162879561,2166396022,2148209472,2151805540,2153784146,2155391725,2147897462,1119,1,15,55800
1382310537,5808,95.1500015258789000,23.4845008850097660,35.2821998596191400,237.6118011474609400,54.7350997924804700,23.4764194488525400,28.4087104797363280,99,120,90,82,58,15117,2158110674,2161224777,2163762468,2148164580,2151613988,2153267181,2154612269,2147824868,3562,1,16,62758
1382310614,5807,93.1699981689453100,23.5400009155273440,35.2743988037109400,237.6441040039062500,52.9139900207519500,23.5327491760253900,28.3843708038330080,96,121,86,83,60,15120,2158576850,2161318875,2163174144,2148161709,2151902372,2153479424,2154594377,2147831753,2616,1,16,27261
1382310691,5808,91.1800003051757800,23.6767005920410160,35.2403984069824200,237.2415924072265600,49.6188507080078100,23.6347293853759770,28.3614692687988280,87,124,91,84,58,15109,2163311716,2167272896,2169581376,2148336173,2153877686,2156287296,2157412662,2148101037,2772,2,16,44266
1382310776,5806,88.9100036621093800,23.8269004821777340,35.2316017150878900,236.8036041259765600,43.8861694335937500,23.8122501373291000,28.3099403381347660,83,133,91,83,59,15108,2160176932,2162279926,2162987218,2148188800,2152777243,2154267044,2154879094,2147867876,2461,1,16,17704
1382310831,5809,86.8399963378906200,23.9368991851806640,35.2126998901367200,236.7055053710937500,41.0588684082031250,23.8998603820800780,28.2791309356689450,79,126,91,85,58,15107,2162983725,2165336896,2165849133,2148291721,2153920685,2155593874,2155909074,2147984932,2200,2,16,20842
1382310886,5807,84.8600006103515600,24.1821994781494140,35.2090988159179700,236.8867034912109400,34.1267395019531250,24.1148395538330080,28.1846504211425780,78,123,90,85,60,15107,2162170459,2163842898,2163894875,2148257645,2153812379,2155268480,2155452333,2147937444,2533,2,16,2875
1382310941,5805,83.2900009155273400,24.2614002227783200,35.2207984924316400,237.4353027343750000,30.8031806945800780,24.2179908752441400,28.1184291839599600,74,125,88,84,57,15106,2163404086,2165044406,2164975497,2148324004,2154415789,2155924800,2155924754,2147997092,2732,1,15,58024
1382311018,5808,81.0400009155273400,24.3889007568359380,35.2326011657714840,238.4716949462890600,27.7337493896484380,24.3133106231689450,28.0336608886718750,73,123,90,84,58,15116,2165679396,2167361526,2167098898,2148429092,2155605065,2157307904,2157063625,2148112457,2590,1,16,43148
1382311103,5807,77.6299972534179700,24.6959991455078120,35.2879981994628900,239.6970977783203000,15.9223899841308600,24.6805496215820300,27.8326606750488280,74,123,89,83,58,15102,2187003885,2192738249,2193422454,2149517074,2165753901,2170492580,2169003803,2149345389,1580,0,16,22618
1382311158,5809,74.9400024414062500,24.7749996185302730,35.3031005859375000,242.2725982666015600,13.2686700820922850,24.7631702423095700,27.6857795715332030,71,123,90,83,58,15099,2185234112,2189614884,2189608420,2149457344,2165596562,2169820507,2167997622,2149247003,798,1,15,4931
1382311213,5807,72.2399978637695300,24.8381996154785160,35.3134002685546900,244.0014038085937500,11.1728801727294920,24.8284397125244140,27.5841808319091800,68,124,92,84,56,15095,2181361563,2183680722,2182649270,2149305883,2164606198,2167784100,2165618752,2149016100,3545,1,16,47391
1382311268,5807,69.8000030517578100,25.2227001190185550,35.3498992919921900,244.5930023193359400,-0.3379226028919220,25.1873893737792970,27.4175605773925780,68,123,90,85,58,15093,2191006637,2194333888,2193295030,2149948754,2169983414,2174040722,2170773339,2149578569,3172,1,16,13145
1382311323,5805,68.1800003051757800,25.2914009094238280,35.3609008789062500,246.5350036621093800,-3.1427979469299316,25.2749691009521500,27.2993907928466800,70,123,89,83,56,15088,2200791625,2205407908,2204332388,2150595739,2176245540,2181649536,2177238473,2150232182,2652,1,16,35412
1382311424,5809,66.5599975585937500,25.4755992889404300,35.3703002929687500,247.5675964355468800,-8.2573680877685550,25.4347991943359380,27.1929492950439450,70,123,89,85,57,15084,2218377270,2224499657,2222580754,2151883254,2187730349,2194861906,2187726016,2151352009,1963,1,16,16066
1382311751,5805,64.0199966430664000,26.2768001556396500,35.3753013610839840,246.4492034912109400,-30.3822498321533200,26.1280708312988280,26.9723396301269530,66,124,94,85,55,15082,2228640338,2233909467,2230877238,2152726454,2196152822,2202955794,2192886976,2151896073,2663,2,15,40765
1382312122,5809,62.5800018310546900,26.7539997100830080,35.4248008728027340,241.5718994140625000,-49.9967002868652340,26.7454109191894530,26.9448204040527340,64,125,89,85,59,15085,2244697243,2249067565,2243759131,2153613385,2211035830,2218289316,2203356827,2152944877,801,1,16,5916
1382312351,5808,60.1399993896484400,27.2707996368408200,35.4556007385253900,237.2124938964843800,-65.9714126586914000,27.2502193450927730,26.9424991607666000,62,120,90,84,53,15082,2267611684,2271762011,2264774930,2155785773,2229445970,2236633773,2215866870,2154377600,729,2,16,28381
1382312428,5808,58.0999984741210940,27.3379001617431640,35.4603004455566400,236.0511932373047000,-68.6167678833007800,27.3339996337890620,26.9619808197021500,63,122,92,85,58,15075,2282153417,2285960128,2276727890,2157340086,2241392758,2248047917,2223156507,2155253412,1227,1,16,55489
1382312505,5808,56.1699981689453100,27.4892997741699220,35.4556007385253900,234.2973022460937500,-73.1607284545898400,27.4780292510986330,26.9851093292236330,62,119,90,86,56,15074,2286903497,2289892736,2279544091,2158104969,2248256621,2253775844,2226497490,2155745673,2141,0,16,727
1382312633,5808,54.1699981689453100,27.6844997406005860,35.4459991455078100,231.9557952880859400,-79.1035766601562500,27.6666603088378900,27.0182304382324220,60,120,91,85,58,15080,2298887405,2300086418,2287841078,2159877869,2259306624,2262837092,2231222765,2156466861,1871,1,16,65137
1382312710,5807,52.3199996948242200,27.8990993499755860,35.3480987548828100,229.2572937011718800,-85.7310333251953100,27.8773403167724600,27.0603294372558600,59,118,92,84,54,15074,2318758116,2320646994,2307651858,2162528265,2282028406,2285053110,2246465325,2158297252,2175,1,17,3279
1382313004,5807,50.0299987792968750,27.8558998107910160,35.2444992065429700,222.9989013671875000,-85.0373764038086000,27.8552703857421880,27.3603706359863280,54,117,91,81,55,15096,2209793554,2204648320,2196333275,2152240658,2203760018,2198363803,2180500745,2150786148,2346,0,16,33022
1382313059,5809,47.9500007629394500,27.8547992706298830,35.2447013854980500,222.4909973144531200,-84.9798507690429700,27.8534393310546880,27.3849792480468750,53,115,89,83,55,15097,2214711936,2209399085,2200862116,2153146185,2211242651,2204488566,2184040027,2151240493,2478,0,16,41814
1382313114,5805,45.5600013732910160,27.8556995391845700,35.2438011169433600,222.3114013671875000,-85.0289306640625000,27.8549995422363280,27.3930606842041000,54,115,92,83,55,15102,2219861659,2214340553,2205502765,2154229769,2219717942,2211421494,2188027355,2151777133,2444,1,17,48209
1382313169,5808,43.0900001525878900,27.8539009094238280,35.2430992126464840,222.2846069335937500,-84.9958877563476600,27.8539505004882800,27.3947105407714840,55,117,87,83,53,15093,2226628242,2221191579,2212134500,2155937417,2230377380,2220486454,2193518171,2152564873,2428,1,17,27593
1382313254,5808,38.8400001525878900,27.8565998077392580,35.2433013916015600,222.2922058105468800,-85.0230331420898400,27.8548107147216800,27.3941097259521500,52,116,89,83,57,15097,2236880091,2230929444,2221782774,2159427492,2248427282,2235075117,2201975972,2153932032,2343,1,16,50033
1382313309,5806,35.6399993896484400,27.8579998016357420,35.2422981262207000,222.2967071533203000,-85.0798568725586000,27.8566207885742200,27.3929290771484380,53,116,87,81,53,15094,2245373010,2239181302,2229819053,2162268214,2263024713,2246755428,2208569819,2155049069,2198,0,16,17824
1382313364,5807,32.4799995422363300,27.8565998077392580,35.2420997619628900,222.3455047607422000,-85.0345382690429700,27.8551807403564450,27.3913192749023440,53,115,91,84,57,15098,2255505042,2249032822,2239930166,2167111213,2280486061,2261131392,2217086747,2156738112,2161,1,16,41829
1382313419,5810,29.2000007629394530,27.8544998168945300,35.2426986694335940,222.4839019775390600,-85.1073226928711000,27.8574905395507800,27.3839302062988280,54,115,90,83,55,15100,2338215478,2335436909,2326813650,2193313728,2382687268,2353865270,2276523766,2166799707,2224,1,17,25718
1382313474,5811,25.8099994659423830,27.8582992553710940,35.2412986755371100,222.5292968750000000,-85.2351684570312500,27.8615608215332030,27.3801403045654300,54,116,90,83,58,15095,2446355053,2454477924,2453842642,2243479158,2542077897,2505533869,2379090404,2185111113,2314,1,16,32727
1382313531,5805,22.2299995422363280,27.8575992584228500,35.2406997680664060,222.5915985107422000,-85.2995834350586000,27.8636093139648440,27.3764591217041000,53,115,90,86,53,15101,2464952630,2472908845,2474105901,2266814116,2577467236,2534961746,2398178386,2192249691,2242,0,17,65352
